Regional Weather Roundup
Issued by NWS

Home | Current Version | Previous Version | Graphics & Text | Print | Product List | Glossary On
Versions: 1 2 3 4 5 6 7 8 9 10 11 12 13 14 15 16 17 18 19 20 21 22 23 24 25 26 27 28 29 30 31 32 33 34 35 36 37 38 39 40 41 42 43 44 45 46 47 48 49 50
000
ASUS43 KOAX 161710
RWRNE

WEATHER ROUNDUP FOR NEBRASKA
NATIONAL WEATHER SERVICE OMAHA NE
1200 PM CDT WED AUG 16 2017

NOTES: SATELLITE DATA IS BEING USED TO AUGMENT CLOUD COVER ABOVE
       12000 FEET.
       "FAIR" INDICATES FEW OR NO CLOUDS BELOW 12,000 FEET WITH NO
       SIGNIFICANT WEATHER AND/OR OBSTRUCTIONS TO VISIBILITY.


NEZ001>004-019>022-054>056-161800-
NEBRASKA PANHANDLE

CITY           SKY/WX    TMP DP  RH WIND       PRES   REMARKS
SCOTTSBLUFF    MOSUNNY   70  56  61 VRB7      30.05S
ALLIANCE       CLOUDY    64  56  75 N13       30.04R
CHADRON        CLOUDY    68  56  65 N14       30.03R
GORDON         CLOUDY    63  58  86 N9        30.02R
KIMBALL        CLOUDY    63  54  70 N12G17    30.11R
SIDNEY         CLOUDY    63  55  75 N13       30.08R
$$

NEZ057>060-069>072-079>082-161800-
SOUTHWEST NEBRASKA

CITY           SKY/WX    TMP DP  RH WIND       PRES   REMARKS
NORTH PLATTE   PTSUNNY   74  62  66 W10       29.94F
IMPERIAL       CLOUDY    72  58  61 NW15      29.99S
LEXINGTON      PTSUNNY   72  61  68 NW14      29.91S
MCCOOK         MOSUNNY   74  63  68 NW15      29.95S
OGALLALA       CLOUDY    70  61  74 NW14      29.99S
$$

NEZ005>010-023>029-035>040-094-161800-
NORTH CENTRAL NEBRASKA

CITY           SKY/WX    TMP DP  RH WIND       PRES   REMARKS
VALENTINE      CLOUDY    65  59  81 N10       29.93R
AINSWORTH      LGT RAIN  65  65  99 N15G21    29.90S
BROKEN BOW     PTSUNNY   70  61  73 NW10      29.90F
O`NEILL        CLOUDY    67  66  98 CALM      29.87S
ORD            CLOUDY    72  63  73 NW10      29.85S
THEDFORD       CLOUDY    69  62  79 N9        29.95S
$$

NEZ041-046>049-061>064-073>077-083>087-161800-
SOUTH CENTRAL NEBRASKA

CITY           SKY/WX    TMP DP  RH WIND       PRES   REMARKS
GRAND ISLAND   PTSUNNY   73  64  73 W16       29.86R
AURORA         PTSUNNY   73  66  79 NW9G21    29.85S
HASTINGS       PTSUNNY   72  61  68 NW17G23   29.87F
HEBRON         PTSUNNY   76  64  67 NW12G17   29.86F
HOLDREGE       CLOUDY    71  60  69 NW12G20   29.90R
KEARNEY        MOSUNNY   72  60  66 NW15      29.88F
YORK           CLOUDY    72  66  83 W13G23    29.85R
$$

NEZ011>018-030>034-042>045-161800-
NORTHEAST NEBRASKA

CITY           SKY/WX    TMP DP  RH WIND       PRES   REMARKS
NORFOLK        CLOUDY    70  65  84 NW6       29.77S
ALBION         CLOUDY    70  66  89 NW14      29.82S
BLAIR          RAIN      73  69  86 SW13      29.79R
COLUMBUS       CLOUDY    71  67  87 SW10      29.80R
FREMONT        MOSUNNY   73  69  90 SW5       29.79R
TEKAMAH        CLOUDY    74  69  85 SW12      29.76R
WAYNE          CLOUDY    71  68  91 S3        29.76S
$$

NEZ050>053-065>068-078-088>093-161800-
SOUTHEAST NEBRASKA

CITY           SKY/WX    TMP DP  RH WIND       PRES   REMARKS
LINCOLN        PTSUNNY   77  65  66 W16       29.81R
OMAHA EPPLEY   CLOUDY    77  68  73 W18       29.78R
BEATRICE       MOSUNNY   76  66  69 W16       29.84S
FALLS CITY     CLOUDY    75  68  78 VRB5      29.79R
NEBRASKA CITY  CLOUDY    76  72  87 W12       29.81R
PLATTSMOUTH    CLOUDY    75  69  80 SW7       29.80R
$$

NEZ044-045-051>053-067-161800-
OMAHA AREA

CITY           SKY/WX    TMP DP  RH WIND       PRES   REMARKS
OMAHA EPPLEY   CLOUDY    77  68  73 W18       29.78R
BLAIR          RAIN      73  69  86 SW13      29.79R
FREMONT        MOSUNNY   73  69  90 SW5       29.79R
MILLARD        CLOUDY    75  69  81 SW5       29.79R
OFFUTT AFB     CLOUDY    77  68  73 W10       29.79R
PLATTSMOUTH    CLOUDY    75  69  80 SW7       29.80R
WAHOO          CLOUDY    73  69  87 W7        29.79S
$$




USA.gov is the U.S. government's official web portal to all federal, state and local government web resources and services.